Year,Month,Day,Hour,Minute,Value (Times are PST for temperature in C)
2014,07,11,00,00,17.00
2014,07,11,00,01,17.00
2014,07,11,00,02,17.00
2014,07,11,00,03,16.90
2014,07,11,00,04,16.90
2014,07,11,00,05,16.90
2014,07,11,00,06,16.90
2014,07,11,00,07,16.90
2014,07,11,00,08,16.80
2014,07,11,00,09,16.80
2014,07,11,00,10,16.80
2014,07,11,00,11,16.80
2014,07,11,00,12,16.80
2014,07,11,00,13,16.70
2014,07,11,00,14,16.70
2014,07,11,00,15,16.70
2014,07,11,00,16,16.60
2014,07,11,00,17,16.60
2014,07,11,00,18,16.60
2014,07,11,00,19,16.60
2014,07,11,00,20,16.50
2014,07,11,00,21,16.50
2014,07,11,00,22,16.50
2014,07,11,00,23,16.40
2014,07,11,00,24,16.40
2014,07,11,00,25,16.40
2014,07,11,00,26,16.30
2014,07,11,00,27,16.30
2014,07,11,00,28,16.30
2014,07,11,00,29,16.30
2014,07,11,00,30,16.30
2014,07,11,00,31,16.30
2014,07,11,00,32,16.20
2014,07,11,00,33,16.20
2014,07,11,00,34,16.20
2014,07,11,00,35,16.20
2014,07,11,00,36,16.20
2014,07,11,00,37,16.20
2014,07,11,00,38,16.30
2014,07,11,00,39,16.20
2014,07,11,00,40,16.20
2014,07,11,00,41,16.20
2014,07,11,00,42,16.20
2014,07,11,00,43,16.20
2014,07,11,00,44,16.20
2014,07,11,00,45,16.20
2014,07,11,00,46,16.20
2014,07,11,00,47,16.20
2014,07,11,00,48,16.10
2014,07,11,00,49,16.10
2014,07,11,00,50,16.10
2014,07,11,00,51,16.10
2014,07,11,00,52,16.10
2014,07,11,00,53,16.10
2014,07,11,00,54,16.00
2014,07,11,00,55,16.00
2014,07,11,00,56,16.00
2014,07,11,00,57,16.00
2014,07,11,00,58,16.00
2014,07,11,00,59,16.00
2014,07,11,01,00,16.00
2014,07,11,01,01,16.00
2014,07,11,01,02,16.00
2014,07,11,01,03,16.00
2014,07,11,01,04,16.00
2014,07,11,01,05,16.00
2014,07,11,01,06,16.00
2014,07,11,01,07,16.00
2014,07,11,01,08,15.90
2014,07,11,01,09,15.90
2014,07,11,01,10,15.90
2014,07,11,01,11,15.90
2014,07,11,01,12,15.90
2014,07,11,01,13,15.90
2014,07,11,01,14,15.80
2014,07,11,01,15,15.80
2014,07,11,01,16,15.80
2014,07,11,01,17,15.80
2014,07,11,01,18,15.80
2014,07,11,01,19,15.80
2014,07,11,01,20,15.80
2014,07,11,01,21,15.80
2014,07,11,01,22,15.80
2014,07,11,01,23,15.80
2014,07,11,01,24,15.80
2014,07,11,01,25,15.90
2014,07,11,01,26,15.90
2014,07,11,01,27,15.90
2014,07,11,01,28,15.90
2014,07,11,01,29,15.90
2014,07,11,01,30,15.90
2014,07,11,01,31,15.90
2014,07,11,01,32,15.90
2014,07,11,01,33,15.90
2014,07,11,01,34,15.90
2014,07,11,01,35,15.90
2014,07,11,01,36,15.90
2014,07,11,01,37,15.90
2014,07,11,01,38,15.90
2014,07,11,01,39,15.90
2014,07,11,01,40,15.90
2014,07,11,01,41,15.90
2014,07,11,01,42,15.90
2014,07,11,01,43,15.90
2014,07,11,01,44,15.90
2014,07,11,01,45,15.90
2014,07,11,01,46,15.90
2014,07,11,01,47,15.90
2014,07,11,01,48,15.90
2014,07,11,01,49,15.80
2014,07,11,01,50,15.80
2014,07,11,01,51,15.80
2014,07,11,01,52,15.80
2014,07,11,01,53,15.80
2014,07,11,01,54,15.80
2014,07,11,01,55,15.90
2014,07,11,01,56,15.90
2014,07,11,01,57,15.90
2014,07,11,01,58,15.80
2014,07,11,01,59,15.80
2014,07,11,02,00,15.80
2014,07,11,02,01,15.80
2014,07,11,02,02,15.80
2014,07,11,02,03,15.80
2014,07,11,02,04,15.70
2014,07,11,02,05,15.70
2014,07,11,02,06,15.70
2014,07,11,02,07,15.70
2014,07,11,02,08,15.70
2014,07,11,02,09,15.60
2014,07,11,02,10,15.60
2014,07,11,02,11,15.60
2014,07,11,02,12,15.60
2014,07,11,02,13,15.60
2014,07,11,02,14,15.60
2014,07,11,02,15,15.50
2014,07,11,02,16,15.50
2014,07,11,02,17,15.40
2014,07,11,02,18,15.40
2014,07,11,02,19,15.30
2014,07,11,02,20,15.30
2014,07,11,02,21,15.30
2014,07,11,02,22,15.30
2014,07,11,02,23,15.20
2014,07,11,02,24,15.20
2014,07,11,02,25,15.20
2014,07,11,02,26,15.20
2014,07,11,02,27,15.20
2014,07,11,02,28,15.20
2014,07,11,02,29,15.10
2014,07,11,02,30,15.10
2014,07,11,02,31,15.10
2014,07,11,02,32,15.10
2014,07,11,02,33,15.00
2014,07,11,02,34,15.00
2014,07,11,02,35,15.00
2014,07,11,02,36,14.90
2014,07,11,02,37,14.90
2014,07,11,02,38,14.90
2014,07,11,02,39,14.80
2014,07,11,02,40,14.80
2014,07,11,02,41,14.80
2014,07,11,02,42,14.70
2014,07,11,02,43,14.70
2014,07,11,02,44,14.70
2014,07,11,02,45,14.60
2014,07,11,02,46,14.60
2014,07,11,02,47,14.60
2014,07,11,02,48,14.50
2014,07,11,02,49,14.40
2014,07,11,02,50,14.40
2014,07,11,02,51,14.30
2014,07,11,02,52,14.30
2014,07,11,02,53,14.30
2014,07,11,02,54,14.20
2014,07,11,02,55,14.20
2014,07,11,02,56,14.10
2014,07,11,02,57,14.10
2014,07,11,02,58,14.10
2014,07,11,02,59,14.10
2014,07,11,03,00,14.10
2014,07,11,03,01,14.10
2014,07,11,03,02,14.10
2014,07,11,03,03,14.10
2014,07,11,03,04,14.10
2014,07,11,03,05,14.10
2014,07,11,03,06,14.10
2014,07,11,03,07,14.00
2014,07,11,03,08,14.10
2014,07,11,03,09,14.00
2014,07,11,03,10,14.00
2014,07,11,03,11,14.00
2014,07,11,03,12,14.00
2014,07,11,03,13,14.00
2014,07,11,03,14,14.00
2014,07,11,03,15,14.00
2014,07,11,03,16,14.00
2014,07,11,03,17,14.00
2014,07,11,03,18,14.00
2014,07,11,03,19,14.00
2014,07,11,03,20,14.00
2014,07,11,03,21,14.00
2014,07,11,03,22,14.00
2014,07,11,03,23,14.00
2014,07,11,03,24,14.00
2014,07,11,03,25,14.00
2014,07,11,03,26,14.00
2014,07,11,03,27,14.00
2014,07,11,03,28,13.90
2014,07,11,03,29,13.90
2014,07,11,03,30,13.90
2014,07,11,03,31,13.90
2014,07,11,03,32,13.90
2014,07,11,03,33,13.90
2014,07,11,03,34,13.90
2014,07,11,03,35,13.90
2014,07,11,03,36,13.90
2014,07,11,03,37,13.90
2014,07,11,03,38,13.90
2014,07,11,03,39,13.90
2014,07,11,03,40,13.90
2014,07,11,03,41,13.90
2014,07,11,03,42,13.90
2014,07,11,03,43,13.90
2014,07,11,03,44,13.80
2014,07,11,03,45,13.80
2014,07,11,03,46,13.80
2014,07,11,03,47,13.80
2014,07,11,03,48,13.80
2014,07,11,03,49,13.80
2014,07,11,03,50,13.80
2014,07,11,03,51,13.80
2014,07,11,03,52,13.80
2014,07,11,03,53,13.70
2014,07,11,03,54,13.70
2014,07,11,03,55,13.70
2014,07,11,03,56,13.70
2014,07,11,03,57,13.70
2014,07,11,03,58,13.70
2014,07,11,03,59,13.70
2014,07,11,04,00,13.70
2014,07,11,04,01,13.70
2014,07,11,04,02,13.70
2014,07,11,04,03,13.70
2014,07,11,04,04,13.60
2014,07,11,04,05,13.60
2014,07,11,04,06,13.60
2014,07,11,04,07,13.60
2014,07,11,04,08,13.60
2014,07,11,04,09,13.60
2014,07,11,04,10,13.60
2014,07,11,04,11,13.60
2014,07,11,04,12,13.60
2014,07,11,04,13,13.60
2014,07,11,04,14,13.50
2014,07,11,04,15,13.50
2014,07,11,04,16,13.50
2014,07,11,04,17,13.50
2014,07,11,04,18,13.50
2014,07,11,04,19,13.50
2014,07,11,04,20,13.50
2014,07,11,04,21,13.50
2014,07,11,04,22,13.60
2014,07,11,04,23,13.60
2014,07,11,04,24,13.60
2014,07,11,04,25,13.60
2014,07,11,04,26,13.60
2014,07,11,04,27,13.60
2014,07,11,04,28,13.60
2014,07,11,04,29,13.60
2014,07,11,04,30,13.60
2014,07,11,04,31,13.60
2014,07,11,04,32,13.60
2014,07,11,04,33,13.60
2014,07,11,04,34,13.60
2014,07,11,04,35,13.60
2014,07,11,04,36,13.60
2014,07,11,04,37,13.50
2014,07,11,04,38,13.50
2014,07,11,04,39,13.50
2014,07,11,04,40,13.50
2014,07,11,04,41,13.50
2014,07,11,04,42,13.50
2014,07,11,04,43,13.50
2014,07,11,04,44,13.50
2014,07,11,04,45,13.50
2014,07,11,04,46,13.50
2014,07,11,04,47,13.50
2014,07,11,04,48,13.40
2014,07,11,04,49,13.40
2014,07,11,04,50,13.40
2014,07,11,04,51,13.40
2014,07,11,04,52,13.40
2014,07,11,04,53,13.40
2014,07,11,04,54,13.40
2014,07,11,04,55,13.40
2014,07,11,04,56,13.40
2014,07,11,04,57,13.40
2014,07,11,04,58,13.40
2014,07,11,04,59,13.40
2014,07,11,05,00,13.40
2014,07,11,05,01,13.40
2014,07,11,05,02,13.40
2014,07,11,05,03,13.40
2014,07,11,05,04,13.40
2014,07,11,05,05,13.40
2014,07,11,05,06,13.40
2014,07,11,05,07,13.50
2014,07,11,05,08,13.50
2014,07,11,05,09,13.50
2014,07,11,05,10,13.60
2014,07,11,05,11,13.70
2014,07,11,05,12,13.70
2014,07,11,05,13,13.80
2014,07,11,05,14,13.80
2014,07,11,05,15,13.90
2014,07,11,05,16,13.90
2014,07,11,05,17,13.90
2014,07,11,05,18,14.00
2014,07,11,05,19,14.10
2014,07,11,05,20,14.10
2014,07,11,05,21,14.10
2014,07,11,05,22,14.10
2014,07,11,05,23,14.10
2014,07,11,05,24,14.10
2014,07,11,05,25,14.20
2014,07,11,05,26,14.20
2014,07,11,05,27,14.20
2014,07,11,05,28,14.20
2014,07,11,05,29,14.20
2014,07,11,05,30,14.20
2014,07,11,05,31,14.20
2014,07,11,05,32,14.30
2014,07,11,05,33,14.30
2014,07,11,05,34,14.30
2014,07,11,05,35,14.30
2014,07,11,05,36,14.30
2014,07,11,05,37,14.20
2014,07,11,05,38,14.20
2014,07,11,05,39,14.20
2014,07,11,05,40,14.20
2014,07,11,05,41,14.20
2014,07,11,05,42,14.20
2014,07,11,05,43,14.20
2014,07,11,05,44,14.20
2014,07,11,05,45,14.20
2014,07,11,05,46,14.20
2014,07,11,05,47,14.20
2014,07,11,05,48,14.20
2014,07,11,05,49,14.20
2014,07,11,05,50,14.20
2014,07,11,05,51,14.20
2014,07,11,05,52,14.20
2014,07,11,05,53,14.20
2014,07,11,05,54,14.20
2014,07,11,05,55,14.20
2014,07,11,05,56,14.20
2014,07,11,05,57,14.20
2014,07,11,05,58,14.20
2014,07,11,05,59,14.10
2014,07,11,06,00,14.10
2014,07,11,06,01,14.10
2014,07,11,06,02,14.10
2014,07,11,06,03,14.10
2014,07,11,06,04,14.10
2014,07,11,06,05,14.10
2014,07,11,06,06,14.10
2014,07,11,06,07,14.10
2014,07,11,06,08,14.10
2014,07,11,06,09,14.10
2014,07,11,06,10,14.10
2014,07,11,06,11,14.10
2014,07,11,06,12,14.10
2014,07,11,06,13,14.10
2014,07,11,06,14,14.10
2014,07,11,06,15,14.10
2014,07,11,06,16,14.10
2014,07,11,06,17,14.10
2014,07,11,06,18,14.10
2014,07,11,06,19,14.10
2014,07,11,06,20,14.10
2014,07,11,06,21,14.10
2014,07,11,06,22,14.10
2014,07,11,06,23,14.10
2014,07,11,06,24,14.20
2014,07,11,06,25,14.20
2014,07,11,06,26,14.20
2014,07,11,06,27,14.20
2014,07,11,06,28,14.20
2014,07,11,06,29,14.30
2014,07,11,06,30,14.30
2014,07,11,06,31,14.30
2014,07,11,06,32,14.30
2014,07,11,06,33,14.30
2014,07,11,06,34,14.30
2014,07,11,06,35,14.40
2014,07,11,06,36,14.40
2014,07,11,06,37,14.40
2014,07,11,06,38,14.40
2014,07,11,06,39,14.40
2014,07,11,06,40,14.40
2014,07,11,06,41,14.50
2014,07,11,06,42,14.50
2014,07,11,06,43,14.50
2014,07,11,06,44,14.50
2014,07,11,06,45,14.60
2014,07,11,06,46,14.60
2014,07,11,06,47,14.70
2014,07,11,06,48,14.70
2014,07,11,06,49,14.80
2014,07,11,06,50,14.80
2014,07,11,06,51,14.90
2014,07,11,06,52,14.90
2014,07,11,06,53,15.00
2014,07,11,06,54,15.10
2014,07,11,06,55,15.10
2014,07,11,06,56,15.10
2014,07,11,06,57,15.20
2014,07,11,06,58,15.20
2014,07,11,06,59,15.20
2014,07,11,07,00,15.20
2014,07,11,07,01,15.20
2014,07,11,07,02,15.30
2014,07,11,07,03,15.30
2014,07,11,07,04,15.30
2014,07,11,07,05,15.40
2014,07,11,07,06,15.40
2014,07,11,07,07,15.40
2014,07,11,07,08,15.50
2014,07,11,07,09,15.50
2014,07,11,07,10,15.60
2014,07,11,07,11,15.60
2014,07,11,07,12,15.70
2014,07,11,07,13,15.80
2014,07,11,07,14,15.80
2014,07,11,07,15,15.80
2014,07,11,07,16,15.80
2014,07,11,07,17,15.90
2014,07,11,07,18,15.90
2014,07,11,07,19,15.90
2014,07,11,07,20,15.90
2014,07,11,07,21,15.90
2014,07,11,07,22,15.90
2014,07,11,07,23,16.00
2014,07,11,07,24,16.00
2014,07,11,07,25,16.00
2014,07,11,07,26,16.10
2014,07,11,07,27,16.20
2014,07,11,07,28,16.30
2014,07,11,07,29,16.30
2014,07,11,07,30,16.40
2014,07,11,07,31,16.40
2014,07,11,07,32,16.50
2014,07,11,07,33,16.60
2014,07,11,07,34,16.70
2014,07,11,07,35,16.70
2014,07,11,07,36,16.80
2014,07,11,07,37,16.80
2014,07,11,07,38,16.80
2014,07,11,07,39,16.90
2014,07,11,07,40,16.90
2014,07,11,07,41,16.90
2014,07,11,07,42,17.00
2014,07,11,07,43,17.00
2014,07,11,07,44,17.00
2014,07,11,07,45,17.00
2014,07,11,07,46,17.10
2014,07,11,07,47,17.10
2014,07,11,07,48,17.10
2014,07,11,07,49,17.10
2014,07,11,07,50,17.20
2014,07,11,07,51,17.20
2014,07,11,07,52,17.20
2014,07,11,07,53,17.30
2014,07,11,07,54,17.30
2014,07,11,07,55,17.30
2014,07,11,07,56,17.40
2014,07,11,07,57,17.40
2014,07,11,07,58,17.50
2014,07,11,07,59,17.50
2014,07,11,08,00,17.60
2014,07,11,08,01,17.60
2014,07,11,08,02,17.70
2014,07,11,08,03,17.70
2014,07,11,08,04,17.80
2014,07,11,08,05,17.80
2014,07,11,08,06,17.90
2014,07,11,08,07,17.90
2014,07,11,08,08,18.00
2014,07,11,08,09,18.10
2014,07,11,08,10,18.20
2014,07,11,08,11,18.30
2014,07,11,08,12,18.50
2014,07,11,08,13,18.60
2014,07,11,08,14,18.70
2014,07,11,08,15,18.80
2014,07,11,08,16,18.90
2014,07,11,08,17,19.00
2014,07,11,08,18,19.20
2014,07,11,08,19,19.20
2014,07,11,08,20,19.30
2014,07,11,08,21,19.40
2014,07,11,08,22,19.40
2014,07,11,08,23,19.50
2014,07,11,08,24,19.50
2014,07,11,08,25,19.60
2014,07,11,08,26,19.70
2014,07,11,08,27,19.80
2014,07,11,08,28,19.90
2014,07,11,08,29,19.90
2014,07,11,08,30,20.00
2014,07,11,08,31,20.10
2014,07,11,08,32,20.10
2014,07,11,08,33,20.00
2014,07,11,08,34,20.00
2014,07,11,08,35,19.90
2014,07,11,08,36,19.80
2014,07,11,08,37,19.80
2014,07,11,08,38,19.70
2014,07,11,08,39,19.70
2014,07,11,08,40,19.60
2014,07,11,08,41,19.60
2014,07,11,08,42,19.50
2014,07,11,08,43,19.50
2014,07,11,08,44,19.40
2014,07,11,08,45,19.40
2014,07,11,08,46,19.40
2014,07,11,08,47,19.40
2014,07,11,08,48,19.40
2014,07,11,08,49,19.40
2014,07,11,08,50,19.40
2014,07,11,08,51,19.40
2014,07,11,08,52,19.30
2014,07,11,08,53,19.30
2014,07,11,08,54,19.30
2014,07,11,08,55,19.30
2014,07,11,08,56,19.20
2014,07,11,08,57,19.20
2014,07,11,08,58,19.20
2014,07,11,08,59,19.10
2014,07,11,09,00,19.00
2014,07,11,09,01,19.00
2014,07,11,09,02,18.90
2014,07,11,09,03,18.90
2014,07,11,09,04,18.90
2014,07,11,09,05,18.90
2014,07,11,09,06,19.00
2014,07,11,09,07,19.10
2014,07,11,09,08,19.10
2014,07,11,09,09,19.10
2014,07,11,09,10,19.10
2014,07,11,09,11,19.00
2014,07,11,09,12,19.00
2014,07,11,09,13,18.90
2014,07,11,09,14,18.90
2014,07,11,09,15,18.90
2014,07,11,09,16,19.00
2014,07,11,09,17,19.00
2014,07,11,09,18,19.10
2014,07,11,09,19,19.10
2014,07,11,09,20,19.20
2014,07,11,09,21,19.20
2014,07,11,09,22,19.20
2014,07,11,09,23,19.30
2014,07,11,09,24,19.30
2014,07,11,09,25,19.30
2014,07,11,09,26,19.20
2014,07,11,09,27,19.20
2014,07,11,09,28,19.20
2014,07,11,09,29,19.20
2014,07,11,09,30,19.20
2014,07,11,09,31,19.20
2014,07,11,09,32,19.30
2014,07,11,09,33,19.30
2014,07,11,09,34,19.30
2014,07,11,09,35,19.40
2014,07,11,09,36,19.40
2014,07,11,09,37,19.50
2014,07,11,09,38,19.50
2014,07,11,09,39,19.60
2014,07,11,09,40,19.70
2014,07,11,09,41,19.80
2014,07,11,09,42,19.80
2014,07,11,09,43,19.90
2014,07,11,09,44,20.00
2014,07,11,09,45,20.00
2014,07,11,09,46,20.10
2014,07,11,09,47,20.10
2014,07,11,09,48,20.10
2014,07,11,09,49,20.10
2014,07,11,09,50,20.20
2014,07,11,09,51,20.20
2014,07,11,09,52,20.20
2014,07,11,09,53,20.20
2014,07,11,09,54,20.20
2014,07,11,09,55,20.30
2014,07,11,09,56,20.30
2014,07,11,09,57,20.40
2014,07,11,09,58,20.40
2014,07,11,09,59,20.30
2014,07,11,10,00,20.30
2014,07,11,10,01,20.30
2014,07,11,10,02,20.30
2014,07,11,10,03,20.40
2014,07,11,10,04,20.50
2014,07,11,10,05,20.50
2014,07,11,10,06,20.60
2014,07,11,10,07,20.50
2014,07,11,10,08,20.40
2014,07,11,10,09,20.30
2014,07,11,10,10,20.30
2014,07,11,10,11,20.30
2014,07,11,10,12,20.30
2014,07,11,10,13,20.40
2014,07,11,10,14,20.40
2014,07,11,10,15,20.50
2014,07,11,10,16,20.50
2014,07,11,10,17,20.50
2014,07,11,10,18,20.60
2014,07,11,10,19,20.60
2014,07,11,10,20,20.60
2014,07,11,10,21,20.60
2014,07,11,10,22,20.60
2014,07,11,10,23,20.60
2014,07,11,10,24,20.60
2014,07,11,10,25,20.60
2014,07,11,10,26,20.60
2014,07,11,10,27,20.70
2014,07,11,10,28,20.60
2014,07,11,10,29,20.50
2014,07,11,10,30,20.50
2014,07,11,10,31,20.50
2014,07,11,10,32,20.40
2014,07,11,10,33,20.30
2014,07,11,10,34,20.20
2014,07,11,10,35,20.10
2014,07,11,10,36,20.00
2014,07,11,10,37,19.90
2014,07,11,10,38,19.80
2014,07,11,10,39,19.60
2014,07,11,10,40,19.60
2014,07,11,10,41,19.60
2014,07,11,10,42,19.50
2014,07,11,10,43,19.50
2014,07,11,10,44,19.40
2014,07,11,10,45,19.40
2014,07,11,10,46,19.30
2014,07,11,10,47,19.20
2014,07,11,10,48,19.20
2014,07,11,10,49,19.20
2014,07,11,10,50,19.30
2014,07,11,10,51,19.30
2014,07,11,10,52,19.30
2014,07,11,10,53,19.20
2014,07,11,10,54,19.20
2014,07,11,10,55,19.20
2014,07,11,10,56,19.20
2014,07,11,10,57,19.20
2014,07,11,10,58,19.10
2014,07,11,10,59,19.00
2014,07,11,11,00,18.90
2014,07,11,11,01,18.80
2014,07,11,11,02,18.70
2014,07,11,11,03,18.70
2014,07,11,11,04,18.70
2014,07,11,11,05,18.70
2014,07,11,11,06,18.60
2014,07,11,11,07,18.60
2014,07,11,11,08,18.70
2014,07,11,11,09,18.70
2014,07,11,11,10,18.70
2014,07,11,11,11,18.70
2014,07,11,11,12,18.70
2014,07,11,11,13,18.70
2014,07,11,11,14,18.70
2014,07,11,11,15,18.60
2014,07,11,11,16,18.60
2014,07,11,11,17,18.60
2014,07,11,11,18,18.60
2014,07,11,11,19,18.60
2014,07,11,11,20,18.60
2014,07,11,11,21,18.70
2014,07,11,11,22,18.70
2014,07,11,11,23,18.80
2014,07,11,11,24,18.70
2014,07,11,11,25,18.80
2014,07,11,11,26,18.80
2014,07,11,11,27,18.70
2014,07,11,11,28,18.80
2014,07,11,11,29,18.80
2014,07,11,11,30,18.80
2014,07,11,11,31,18.90
2014,07,11,11,32,19.00
2014,07,11,11,33,19.10
2014,07,11,11,34,19.10
2014,07,11,11,35,19.10
2014,07,11,11,36,19.20
2014,07,11,11,37,19.20
2014,07,11,11,38,19.30
2014,07,11,11,39,19.50
2014,07,11,11,40,19.60
2014,07,11,11,41,19.70
2014,07,11,11,42,19.80
2014,07,11,11,43,20.00
2014,07,11,11,44,20.10
2014,07,11,11,45,20.30
2014,07,11,11,46,20.40
2014,07,11,11,47,20.60
2014,07,11,11,48,20.70
2014,07,11,11,49,20.70
2014,07,11,11,50,20.80
2014,07,11,11,51,20.80
2014,07,11,11,52,20.80
2014,07,11,11,53,20.80
2014,07,11,11,54,20.80
2014,07,11,11,55,20.90
2014,07,11,11,56,21.00
2014,07,11,11,57,21.00
2014,07,11,11,58,21.10
2014,07,11,11,59,21.10
2014,07,11,12,00,21.10
2014,07,11,12,01,21.20
2014,07,11,12,02,21.20
2014,07,11,12,03,21.30
2014,07,11,12,04,21.30
2014,07,11,12,05,21.40
2014,07,11,12,06,21.40
2014,07,11,12,07,21.40
2014,07,11,12,08,21.30
2014,07,11,12,09,21.30
2014,07,11,12,10,21.40
2014,07,11,12,11,21.30
2014,07,11,12,12,21.20
2014,07,11,12,13,21.10
2014,07,11,12,14,20.90
2014,07,11,12,15,20.80
2014,07,11,12,16,20.80
2014,07,11,12,17,20.70
2014,07,11,12,18,20.70
2014,07,11,12,19,20.70
2014,07,11,12,20,20.80
2014,07,11,12,21,20.90
2014,07,11,12,22,21.00
2014,07,11,12,23,21.00
2014,07,11,12,24,21.10
2014,07,11,12,25,21.00
2014,07,11,12,26,21.00
2014,07,11,12,27,20.90
2014,07,11,12,28,20.80
2014,07,11,12,29,20.80
2014,07,11,12,30,20.80
2014,07,11,12,31,20.80
2014,07,11,12,32,20.80
2014,07,11,12,33,20.80
2014,07,11,12,34,20.80
2014,07,11,12,35,20.70
2014,07,11,12,36,20.60
2014,07,11,12,37,20.60
2014,07,11,12,38,20.70
2014,07,11,12,39,20.80
2014,07,11,12,40,20.80
2014,07,11,12,41,20.70
2014,07,11,12,42,20.70
2014,07,11,12,43,20.80
2014,07,11,12,44,20.90
2014,07,11,12,45,20.90
2014,07,11,12,46,21.00
2014,07,11,12,47,21.10
2014,07,11,12,48,21.10
2014,07,11,12,49,21.10
2014,07,11,12,50,21.00
2014,07,11,12,51,21.00
2014,07,11,12,52,21.00
2014,07,11,12,53,21.10
2014,07,11,12,54,21.10
2014,07,11,12,55,21.20
2014,07,11,12,56,21.10
2014,07,11,12,57,21.10
2014,07,11,12,58,21.10
2014,07,11,12,59,21.10
2014,07,11,13,00,21.10
2014,07,11,13,01,21.10
2014,07,11,13,02,21.10
2014,07,11,13,03,21.00
2014,07,11,13,04,21.10
2014,07,11,13,05,21.10
2014,07,11,13,06,21.20
2014,07,11,13,07,21.20
2014,07,11,13,08,21.20
2014,07,11,13,09,21.20
2014,07,11,13,10,21.20
2014,07,11,13,11,21.20
2014,07,11,13,12,21.20
2014,07,11,13,13,21.20
2014,07,11,13,14,21.20
2014,07,11,13,15,21.20
2014,07,11,13,16,21.30
2014,07,11,13,17,21.40
2014,07,11,13,18,21.50
2014,07,11,13,19,21.60
2014,07,11,13,20,21.70
2014,07,11,13,21,21.70
2014,07,11,13,22,21.80
2014,07,11,13,23,21.80
2014,07,11,13,24,21.70
2014,07,11,13,25,21.70
2014,07,11,13,26,21.70
2014,07,11,13,27,21.80
2014,07,11,13,28,21.80
2014,07,11,13,29,21.70
2014,07,11,13,30,21.70
2014,07,11,13,31,21.70
2014,07,11,13,32,21.60
2014,07,11,13,33,21.60
2014,07,11,13,34,21.60
2014,07,11,13,35,21.60
2014,07,11,13,36,21.70
2014,07,11,13,37,21.80
2014,07,11,13,38,22.00
2014,07,11,13,39,22.10
2014,07,11,13,40,22.20
2014,07,11,13,41,22.20
2014,07,11,13,42,22.20
2014,07,11,13,43,22.30
2014,07,11,13,44,22.30
2014,07,11,13,45,22.40
2014,07,11,13,46,22.40
2014,07,11,13,47,22.50
2014,07,11,13,48,22.40
2014,07,11,13,49,22.40
2014,07,11,13,50,22.40
2014,07,11,13,51,22.50
2014,07,11,13,52,22.50
2014,07,11,13,53,22.60
2014,07,11,13,54,22.60
2014,07,11,13,55,22.70
2014,07,11,13,56,22.70
2014,07,11,13,57,22.70
2014,07,11,13,58,22.80
2014,07,11,13,59,22.90
2014,07,11,14,00,23.00
2014,07,11,14,01,23.00
2014,07,11,14,02,23.10
2014,07,11,14,03,23.20
2014,07,11,14,04,23.20
2014,07,11,14,05,23.30
2014,07,11,14,06,23.20
2014,07,11,14,07,23.20
2014,07,11,14,08,23.20
2014,07,11,14,09,23.20
2014,07,11,14,10,23.10
2014,07,11,14,11,23.10
2014,07,11,14,12,23.10
2014,07,11,14,13,23.00
2014,07,11,14,14,23.00
2014,07,11,14,15,23.00
2014,07,11,14,16,23.00
2014,07,11,14,17,23.00
2014,07,11,14,18,22.90
2014,07,11,14,19,23.00
2014,07,11,14,20,23.00
2014,07,11,14,21,23.00
2014,07,11,14,22,23.00
2014,07,11,14,23,23.10
2014,07,11,14,24,23.20
2014,07,11,14,25,23.20
2014,07,11,14,26,23.30
2014,07,11,14,27,23.30
2014,07,11,14,28,23.30
2014,07,11,14,29,23.40
2014,07,11,14,30,23.40
2014,07,11,14,31,23.40
2014,07,11,14,32,23.40
2014,07,11,14,33,23.40
2014,07,11,14,34,23.40
2014,07,11,14,35,23.30
2014,07,11,14,36,23.10
2014,07,11,14,37,23.00
2014,07,11,14,38,22.90
2014,07,11,14,39,22.80
2014,07,11,14,40,22.70
2014,07,11,14,41,22.60
2014,07,11,14,42,22.60
2014,07,11,14,43,22.60
2014,07,11,14,44,22.60
2014,07,11,14,45,22.60
2014,07,11,14,46,22.60
2014,07,11,14,47,22.60
2014,07,11,14,48,22.60
2014,07,11,14,49,22.60
2014,07,11,14,50,22.60
2014,07,11,14,51,22.60
2014,07,11,14,52,22.60
2014,07,11,14,53,22.70
2014,07,11,14,54,22.70
2014,07,11,14,55,22.60
2014,07,11,14,56,22.60
2014,07,11,14,57,22.50
2014,07,11,14,58,22.40
2014,07,11,14,59,22.40
2014,07,11,15,00,22.30
2014,07,11,15,01,22.30
2014,07,11,15,02,22.30
2014,07,11,15,03,22.30
2014,07,11,15,04,22.30
2014,07,11,15,05,22.30
2014,07,11,15,06,22.30
2014,07,11,15,07,22.30
2014,07,11,15,08,22.30
2014,07,11,15,09,22.30
2014,07,11,15,10,22.30
2014,07,11,15,11,22.30
2014,07,11,15,12,22.30
2014,07,11,15,13,22.30
2014,07,11,15,14,22.20
2014,07,11,15,15,22.20
2014,07,11,15,16,22.20
2014,07,11,15,17,22.20
2014,07,11,15,18,22.20
2014,07,11,15,19,22.30
2014,07,11,15,20,22.40
2014,07,11,15,21,22.40
2014,07,11,15,22,22.40
2014,07,11,15,23,22.40
2014,07,11,15,24,22.40
2014,07,11,15,25,22.50
2014,07,11,15,26,22.50
2014,07,11,15,27,22.60
2014,07,11,15,28,22.60
2014,07,11,15,29,22.60
2014,07,11,15,30,22.60
2014,07,11,15,31,22.70
2014,07,11,15,32,22.80
2014,07,11,15,33,22.90
2014,07,11,15,34,23.00
2014,07,11,15,35,22.90
2014,07,11,15,36,22.90
2014,07,11,15,37,22.90
2014,07,11,15,38,23.00
2014,07,11,15,39,23.10
2014,07,11,15,40,23.30
2014,07,11,15,41,23.40
2014,07,11,15,42,23.60
2014,07,11,15,43,23.80
2014,07,11,15,44,24.00
2014,07,11,15,45,24.00
2014,07,11,15,46,24.10
2014,07,11,15,47,24.10
2014,07,11,15,48,24.10
2014,07,11,15,49,24.00
2014,07,11,15,50,23.90
2014,07,11,15,51,23.90
2014,07,11,15,52,23.80
2014,07,11,15,53,23.80
2014,07,11,15,54,23.70
2014,07,11,15,55,23.70
2014,07,11,15,56,23.70
2014,07,11,15,57,23.60
2014,07,11,15,58,23.50
2014,07,11,15,59,23.30
2014,07,11,16,00,23.10
2014,07,11,16,01,23.10
2014,07,11,16,02,23.10
2014,07,11,16,03,23.10
2014,07,11,16,04,23.20
2014,07,11,16,05,23.30
2014,07,11,16,06,23.30
2014,07,11,16,07,23.30
2014,07,11,16,08,23.20
2014,07,11,16,09,23.10
2014,07,11,16,10,23.00
2014,07,11,16,11,23.00
2014,07,11,16,12,23.00
2014,07,11,16,13,22.90
2014,07,11,16,14,22.90
2014,07,11,16,15,22.80
2014,07,11,16,16,22.80
2014,07,11,16,17,22.80
2014,07,11,16,18,22.90
2014,07,11,16,19,22.90
2014,07,11,16,20,23.00
2014,07,11,16,21,23.00
2014,07,11,16,22,23.00
2014,07,11,16,23,23.00
2014,07,11,16,24,23.10
2014,07,11,16,25,23.20
2014,07,11,16,26,23.20
2014,07,11,16,27,23.30
2014,07,11,16,28,23.30
2014,07,11,16,29,23.30
2014,07,11,16,30,23.30
2014,07,11,16,31,23.40
2014,07,11,16,32,23.40
2014,07,11,16,33,23.50
2014,07,11,16,34,23.60
2014,07,11,16,35,23.50
2014,07,11,16,36,23.40
2014,07,11,16,37,23.30
2014,07,11,16,38,23.30
2014,07,11,16,39,23.20
2014,07,11,16,40,23.20
2014,07,11,16,41,23.20
2014,07,11,16,42,23.20
2014,07,11,16,43,23.20
2014,07,11,16,44,23.30
2014,07,11,16,45,23.40
2014,07,11,16,46,23.40
2014,07,11,16,47,23.40
2014,07,11,16,48,23.30
2014,07,11,16,49,23.30
2014,07,11,16,50,23.40
2014,07,11,16,51,23.40
2014,07,11,16,52,23.50
2014,07,11,16,53,23.50
2014,07,11,16,54,23.50
2014,07,11,16,55,23.50
2014,07,11,16,56,23.50
2014,07,11,16,57,23.40
2014,07,11,16,58,23.40
2014,07,11,16,59,23.50
2014,07,11,17,00,23.60
2014,07,11,17,01,23.60
2014,07,11,17,02,23.60
2014,07,11,17,03,23.50
2014,07,11,17,04,23.50
2014,07,11,17,05,23.60
2014,07,11,17,06,23.60
2014,07,11,17,07,23.70
2014,07,11,17,08,23.70
2014,07,11,17,09,23.80
2014,07,11,17,10,23.90
2014,07,11,17,11,23.90
2014,07,11,17,12,24.10
2014,07,11,17,13,24.10
2014,07,11,17,14,24.20
2014,07,11,17,15,24.20
2014,07,11,17,16,24.20
2014,07,11,17,17,24.20
2014,07,11,17,18,24.20
2014,07,11,17,19,24.20